Regional Weather Roundup
Issued by NWS

Home | Current Version | Previous Version | Graphics & Text | Print | Product List | Glossary Off
Versions: 1 2 3 4 5 6 7 8 9 10 11 12 13 14 15 16 17 18 19 20 21 22 23 24 25 26 27 28 29 30 31 32 33 34 35 36 37 38 39 40 41 42 43 44 45 46 47 48 49 50

000
ASUS44 KFWD 281815
RWRTX
NORTH TEXAS HOURLY WEATHER ROUNDUP
NATIONAL WEATHER SERVICE FORT WORTH TX
100 PM CDT SAT MAR 28 2015

NOTE: "FAIR" INDICATES FEW OR NO CLOUDS BELOW 12,000 FEET WITH NO
SIGNIFICANT WEATHER AND/OR OBSTRUCTIONS TO VISIBILITY.

TXZ118-119-281900-
DALLAS/FORT WORTH METROPLEX

CITY           SKY/WX    TMP DP  RH WIND       PRES   REMARKS
DFW AIRPORT    MOSUNNY   72  44  36 S13       30.05F
6HR MIN TEMP:  45; 6HR MAX TEMP:  73;

DALLAS LOVE    SUNNY     73  43  33 S7        30.05F
6HR MIN TEMP:  50; 6HR MAX TEMP:  73;

FTW MEACHAM    SUNNY     74  48  39 S9        30.03F
6HR MIN TEMP:  46; 6HR MAX TEMP:  74;

DAL-EXECUTIVE  SUNNY     72  45  37 SE10      30.05F
6HR MIN TEMP:  44; 6HR MAX TEMP:  72;

FTW-ALLIANCE   SUNNY     73  46  38 S10       30.04F
6HR MIN TEMP:  46; 6HR MAX TEMP:  73;

FTW-SPINKS     SUNNY     73  46  38 S8        30.06F
ARLINGTON      SUNNY     73  45  36 SE10      30.05F
6HR MIN TEMP:  48; 6HR MAX TEMP:  73;

GRAND PRAIRIE  SUNNY     72  48  43 S10       30.06F
MESQUITE       SUNNY     70  46  43 S6        30.08F
LANCASTER      SUNNY     70  45  39 S7        30.07F
6HR MIN TEMP:  40; 6HR MAX TEMP:  70;

$$

TXZ091>094-102>105-117-120-121-131>134-281900-
NORTH CENTRAL TEXAS

CITY           SKY/WX    TMP DP  RH WIND       PRES   REMARKS
SHRMAN/DENISON SUNNY     70  50  49 S13       30.06F
6HR MIN TEMP:  49; 6HR MAX TEMP:  70;

GAINESVILLE    SUNNY     68  46  44 S10       30.06F
6HR MIN TEMP:  44; 6HR MAX TEMP:  68;

BOWIE          SUNNY     73  42  33 S6        30.02F
6HR MIN TEMP:  45; 6HR MAX TEMP:  73;

BRIDGEPORT     SUNNY     74  47  38 SW5       30.05F
6HR MIN TEMP:  40; 6HR MAX TEMP:  74;

DECATUR        SUNNY     72  41  32 S7        30.04F
6HR MIN TEMP:  48; 6HR MAX TEMP:  72;

DENTON         SUNNY     71  45  39 S13       30.04F
6HR MIN TEMP:  42; 6HR MAX TEMP:  71;

MCKINNEY       SUNNY     68  47  46 SE8       30.06F
6HR MIN TEMP:  43; 6HR MAX TEMP:  68;

GREENVILLE     SUNNY     70  41  35 S9G16     30.08F
ROCKWALL       SUNNY     70  45  40 S13G18    30.06F
6HR MIN TEMP:  45; 6HR MAX TEMP:  70;

TERRELL        SUNNY     70  48  45 S9        30.08F
6HR MIN TEMP:  44; 6HR MAX TEMP:  70;

WAXAHACHIE     SUNNY     73  49  42 S8        30.07F
6HR MIN TEMP:  44; 6HR MAX TEMP:  73;

CLEBURNE       SUNNY     73  48  40 S10       30.06F
GRANBURY         N/A     79  45  30 S9G16     30.04F
6HR MIN TEMP:  50; 6HR MAX TEMP:  79;

$$

TXZ083>090-098>101-113>116-127>130-139>142-154-155-281900-
WESTERN NORTH TEXAS

CITY           SKY/WX    TMP DP  RH WIND       PRES   REMARKS
WICHITA FALLS  SUNNY     72  45  37 VRB7      30.01F
6HR MIN TEMP:  43; 6HR MAX TEMP:  72;

WF-KICKAPOO    SUNNY     74  43  33 SW5       30.02F
6HR MIN TEMP:  46; 6HR MAX TEMP:  74;

VERNON         SUNNY     73  36  26 CALM      30.01F
6HR MIN TEMP:  39; 6HR MAX TEMP:  73;

ABILENE        SUNNY     78  43  28 SW13G22   30.03F
6HR MIN TEMP:  56; 6HR MAX TEMP:  78;

ABILENE-DYESS  SUNNY     80  47  32 SW10      30.01F
6HR MIN TEMP:  54; 6HR MAX TEMP:  80; 6HR PCP: TRACE;

BRECKENRIDGE   SUNNY     82  42  24 SW12G17   30.00F
6HR MIN TEMP:  51; 6HR MAX TEMP:  82;

GRAHAM         SUNNY     80  45  28 S7        29.99F
6HR MIN TEMP:  49; 6HR MAX TEMP:  80;

MINERAL WELLS  SUNNY     78  43  28 SW8       30.01F
6HR MIN TEMP:  43; 6HR MAX TEMP:  78;

STEPHENVILLE   SUNNY     78  41  26 SW12      30.06F
6HR MIN TEMP:  48; 6HR MAX TEMP:  78;

COMANCHE       SUNNY     78  46  33 SW12      30.05F
6HR MIN TEMP:  46; 6HR MAX TEMP:  78;

BROWNWOOD      SUNNY     81  43  26 SW13      30.05F
COLEMAN        SUNNY     81  44  27 SW17G23   30.05F
6HR MIN TEMP:  45; 6HR MAX TEMP:  81;

BRADY          SUNNY     81  39  22 S14       30.06F
$$

TXZ143>147-156>162-174-175-281900-
CENTRAL TEXAS

CITY           SKY/WX    TMP DP  RH WIND       PRES   REMARKS
WACO           SUNNY     75  49  39 S13G22    30.07F
6HR MIN TEMP:  45; 6HR MAX TEMP:  75;

WACO-TSTC      SUNNY     75  48  38 S10       30.07F
WACO-MCGREGOR  SUNNY     79  52  38 S17       30.08F
6HR MIN TEMP:  46; 6HR MAX TEMP:  79;

HILLSBORO      SUNNY     72  51  47 S12G18    30.07F
6HR MIN TEMP:  43; 6HR MAX TEMP:  72;

CORSICANA      SUNNY     75  47  36 S14       30.09F
6HR MIN TEMP:  47; 6HR MAX TEMP:  75;

MEXIA          SUNNY     75  46  36 S15G22    30.08F
6HR MIN TEMP:  46; 6HR MAX TEMP:  75;

HEARNE         SUNNY     78  48  35 S12       30.11F
6HR MIN TEMP:  49; 6HR MAX TEMP:  78;

CAMERON        SUNNY     78  46  32 SW15G23   30.10F
6HR MIN TEMP:  54; 6HR MAX TEMP:  78;

TEMPLE         SUNNY     79  45  29 S20G25    30.06F
6HR MIN TEMP:  46; 6HR MAX TEMP:  79;

KILLEEN        SUNNY     78  41  26 S14       30.07F
6HR MIN TEMP:  49; 6HR MAX TEMP:  79;

KILLEEN-SKYLRK SUNNY     81  41  24 MISG      30.08F
6HR MIN TEMP:  46; 6HR MAX TEMP:  81;

FORT HOOD      SUNNY     81  40  22 S17       30.06F
6HR MIN TEMP:  48; 6HR MAX TEMP:  81;

GATESVILLE     SUNNY     81  39  22 SW13G18   30.08F
HAMILTON       SUNNY     80  40  23 S18G28    30.06F
6HR MIN TEMP:  46; 6HR MAX TEMP:  80;

LAMPASAS       SUNNY     78  41  26 S9        30.07F
6HR MIN TEMP:  43; 6HR MAX TEMP:  78;

$$

TXZ095>097-106>112-122>126-135>138-148>153-164>167-281900-
EAST TEXAS

CITY           SKY/WX    TMP DP  RH WIND       PRES   REMARKS
SULPHUR SPRNGS SUNNY     67  43  41 SE8       30.11F
6HR MIN TEMP:  43; 6HR MAX TEMP:  68;

MOUNT PLEASANT SUNNY     66  44  45 S7        30.13F
6HR MIN TEMP:  40; 6HR MAX TEMP:  67;

GILMER         SUNNY     68  43  40 SE9       30.11F
6HR MIN TEMP:  43; 6HR MAX TEMP:  68;

MINEOLA        SUNNY     70  37  30 S9        30.11F
TYLER          SUNNY     71  42  35 S10       30.11F
6HR MIN TEMP:  47; 6HR MAX TEMP:  72;

LONGVIEW       MOSUNNY   72  44  36 S13       30.11F
6HR MIN TEMP:  45; 6HR MAX TEMP:  72;

MARSHALL       PTSUNNY   68  46  44 SW5       30.16F
6HR MIN TEMP:  46; 6HR MAX TEMP:  68;

ATHENS         SUNNY     70  45  40 S9        30.09F
PALESTINE      SUNNY     74  46  36 S9        30.11F
JACKSONVILLE   SUNNY     73  41  31 S10G17    30.13F
HENDERSON      SUNNY     71  43  36 S7        30.13F
6HR MIN TEMP:  42; 6HR MAX TEMP:  71;

NACOGDOCHES    SUNNY     72  45  37 SW12      30.14F
LUFKIN         SUNNY     78  44  29 S10G18    30.13F
6HR MIN TEMP:  46; 6HR MAX TEMP:  78;

$$

SUPPLEMENTAL OBSERVATIONS (CENTRAL)

CITY           SKY/WX    TMP DP  RH WIND       PRES   REMARKS
LAKE TEXOMA      N/A     68  41  37 S6          N/A
CADDO GRASSLND   N/A     68  43  40 S12         N/A
PAT MAYSE LAKE   N/A     63  41  45 SE12        N/A
GREENVILLE       N/A     72  43  35 S9G17       N/A
CEDAR HILL       N/A     75  43  31 SW9         N/A
ATHENS           N/A     73  41  31 S9G17       N/A
MCGREGOR         N/A     81  45  28 S14         N/A
TEMPLE           N/A     79  43  27 S20G26      N/A
$$

SUPPLEMENTAL OBSERVATIONS (WEST)

CITY           SKY/WX    TMP DP  RH WIND       PRES   REMARKS
MILLERS CREEK    N/A     79  45  29 SW8         N/A
POSSUM KINGDOM   N/A     82  39  21 SW10        N/A
LBJ GRASSLAND    N/A     75  43  31 S7          N/A


USA.gov is the U.S. government's official web portal to all federal, state and local government web resources and services.